Regional Weather Roundup
Issued by NWS Cleveland, OH

Home | Current Version | Previous Version | Graphics & Text | Print | Product List | Glossary On
Versions: 1 2 3 4 5 6 7 8 9 10 11 12 13 14 15 16 17 18 19 20 21 22 23 24 25 26 27 28 29 30 31 32 33 34 35 36 37 38 39 40 41 42 43 44 45 46 47 48 49 50
697
ASUS41 KCLE 071600
RWRCLE
OHIO REGIONAL WEATHER ROUNDUP
NATIONAL WEATHER SERVICE WILMINGTON, OH
1100 AM EST SUN FEB 07 2016

NOTE: "FAIR" INDICATES FEW OR NO CLOUDS BELOW 12,000 FEET WITH NO
SIGNIFICANT WEATHER AND/OR OBSTRUCTIONS TO VISIBILITY.

OHZ001>008-015>018-024>027-034-035-043-044-071700-
   NORTHWEST OHIO

CITY           SKY/WX    TMP DP  RH WIND       PRES   REMARKS
DEFIANCE       PTSUNNY   40  28  62 S12       29.96F
FINDLAY        FAIR      40  29  64 S15       29.98F
TOLEDO EXPRESS PTSUNNY   40  26  57 SW9       29.95F
TOLEDO EXEC    FAIR      42  28  57 SW15      29.97F
LIMA           FAIR      40  27  59 SW13      29.99F
$$

OHZ009>014-019>023-028>033-038-089-071700-
   NORTHEAST OHIO

CITY           SKY/WX    TMP DP  RH WIND       PRES   REMARKS
CLE-HOPKINS    FAIR      42  24  49 S15       30.02F
CLE-LAKEFRONT  PTSUNNY   45  25  45 SE14      29.99F
CUY CO. ARPT   PTSUNNY   45  27  49 S12G20    30.00F
LORAIN-ELYRIA  FAIR      43  26  51 SW13      30.00F
ASHTABULA      FAIR      37  25  61 S12       30.02F
AKRON-CANTON   PTSUNNY   39  24  55 S10       30.04F
WOOSTER        NOT AVBL
MANSFIELD      FAIR      41  26  55 S10       30.01F
YOUNGSTOWN     PTSUNNY   36  23  59 S10       30.04F
$$

OHZ042-051>053-060>062-070>072-077>081-071700-
  SOUTHWEST OHIO

CITY           SKY/WX    TMP DP  RH WIND       PRES   REMARKS
CINC-COVINGTON PTSUNNY   42  23  46 S10       30.07F
CINC-LUNKEN    FAIR      43  29  57 S6        30.10F
HAMILTON       FAIR      46  25  43 VRB6      30.08S
DAYTON         NOT AVBL
WRIGHT-PAT AFB NOT AVBL
DAYTON GENERAL FAIR      44  23  43 SW10      30.04F
WILMINGTON     FAIR      44  27  51 S10       30.06F
$$

OHZ036-037-039>041-045>050-054>059-063>069-073>076-082>088-071700-
  CENTRAL AND SOUTHEAST OHIO

CITY           SKY/WX    TMP DP  RH WIND       PRES   REMARKS
COLUMBUS       PTSUNNY   41  22  46 SW12      30.06F
OSU AIRPORT    FAIR      44  26  49 SW8       30.05S
BOLTON FIELD   NOT AVBL
RICKENBACK AFB NOT AVBL
NEWARK         FAIR      42  26  53 S9        30.06F
MARION         FAIR      41  27  57 S15       30.02F
LANCASTER      FAIR      44  24  45 S10       30.07F
ZANESVILLE     FAIR      40  25  55 S8        30.07F
NEW PHILLY     CLOUDY    37  26  64 S5        30.07F
$$




USA.gov is the U.S. government's official web portal to all federal, state and local government web resources and services.